Location: Monfort
(47.1967°N, 0.2115°W)
Time: 07:30:01
(UTC+00:00)

ARGOS - Pass Details

Date: 24 October 2020
Orbit: 820 x 835 km, 98.4° (Epoch: 27 November)

Event Time Altitude Azimuth Distance (km) Brightness Sun altitude
Exits shadow 19:50:39 27° 204° (SSW) 1,568 4.6 -30.0°
Maximum altitude 19:53:17 46° 262° (W) 1,114 4.1 -30.5°
Drops below altitude 10° 19:58:31 10° 335° (NNW) 2,457 6.1 -31.3°
Sets 20:01:00 0° 341° (NNW) 3,396 6.8 -31.7°
